EW9106 Weather Reports


Display with metric or nautical units.
time (UTC)temp
F
wind
direction
speed
MPH
gust
MPH
rain 1hr
in
rain 24hr
in
rain mn
in
humidity
%
barometer
mb
20260504080602 50 213 0.0 1.0 0.00 0.00 0.00 72 1005.9
20260504045601 51 223 1.0 7.0 0.00 0.00 0.00 68 1008.1
20260504045102 51 206 0.0 3.0 0.00 0.00 0.00 68 1008.2
20260504044601 51 216 0.0 3.0 0.00 0.00 0.00 69 1008.2
20260504044102 51 215 0.0 0.0 0.00 0.00 0.00 69 1008.1
20260504043601 51 186 1.0 9.0 0.00 0.00 0.00 69 1008.1
20260504043102 51 207 1.0 6.0 0.00 0.00 0.00 69 1007.9
20260504042601 51 189 0.0 8.0 0.00 0.00 0.00 69 1008.2
20260504042101 51 186 1.0 5.0 0.00 0.00 0.00 69 1008.2
20260504041601 51 195 1.0 3.0 0.00 0.00 0.00 69 1008.2
20260504041101 51 205 1.0 6.0 0.00 0.00 0.00 69 1008.2
20260504040601 51 208 0.0 3.0 0.00 0.00 0.00 69 1008.2
20260504035602 51 189 1.0 8.0 0.00 0.00 0.00 69 1008.5
20260504034601 51 204 0.0 3.0 0.00 0.00 0.00 70 1008.7
20260504034101 51 208 0.0 1.0 0.00 0.00 0.00 70 1008.6
20260504033602 51 204 0.0 1.0 0.00 0.00 0.00 70 1008.6
20260504033102 51 200 0.0 6.0 0.00 0.00 0.00 71 1008.6
20260504032601 51 204 1.0 8.0 0.00 0.00 0.00 71 1008.7
20260504032101 51 208 1.0 9.0 0.00 0.00 0.00 71 1008.7
20260504031601 51 191 0.0 8.0 0.00 0.00 0.00 72 1008.8
20260504030602 50 189 0.0 2.0 0.00 0.00 0.00 72 1008.9
20260504030101 50 186 0.0 5.0 0.00 0.00 0.00 73 1008.9
20260504025601 50 218 0.0 6.0 0.00 0.00 0.00 73 1009.0
20260504024602 51 210 0.0 2.0 0.00 0.00 0.00 72 1009.2
20260504024101 51 197 0.0 0.0 0.00 0.00 0.00 72 1009.2
20260504023601 51 183 0.0 0.0 0.00 0.00 0.00 72 1009.2
20260504022602 51 197 0.0 2.0 0.00 0.00 0.00 72 1009.3
20260504022102 51 191 0.0 1.0 0.00 0.00 0.00 72 1009.4
20260504021601 51 198 0.0 2.0 0.00 0.00 0.00 71 1009.3
20260504021102 51 189 0.0 3.0 0.00 0.00 0.00 71 1009.3
20260504020602 51 190 0.0 6.0 0.00 0.00 0.00 71 1009.3
20260504015602 52 184 0.0 5.0 0.00 0.00 0.00 70 1009.3
20260504015102 52 184 0.0 3.0 0.00 0.00 0.00 70 1009.3
20260504014602 52 191 0.0 0.0 0.00 0.00 0.00 70 1009.3
20260504013602 52 187 0.0 1.0 0.00 0.00 0.00 69 1009.2
20260504013102 52 215 0.0 2.0 0.00 0.00 0.00 69 1009.3
20260504012602 52 195 1.0 8.0 0.00 0.00 0.00 69 1009.3
20260504012101 52 205 0.0 0.0 0.00 0.00 0.00 68 1009.2
20260504011601 52 186 0.0 0.0 0.00 0.00 0.00 69 1009.3
20260504010602 52 228 0.0 0.0 0.00 0.00 0.00 68 1009.4
20260504005602 52 201 0.0 0.0 0.00 0.00 0.00 67 1009.5
20260504005102 52 202 0.0 0.0 0.00 0.00 0.00 67 1009.5
20260504004601 52 193 0.0 0.0 0.00 0.00 0.00 66 1009.5
20260504003602 52 216 0.0 0.0 0.00 0.00 0.00 65 1009.5
20260504003102 53 236 0.0 2.0 0.00 0.00 0.00 65 1009.5
20260504002601 53 204 0.0 0.0 0.00 0.00 0.00 66 1009.4
20260504002102 53 229 0.0 0.0 0.00 0.00 0.00 65 1009.6
20260504001602 53 217 0.0 1.0 0.00 0.00 0.00 64 1009.7
20260504001102 53 247 0.0 2.0 0.00 0.00 0.00 64 1009.8
20260503235601 53 234 0.0 0.0 0.00 0.00 0.00 64 1009.9
20260503235102 54 230 0.0 3.0 0.00 0.00 0.00 63 1009.8
20260503234601 54 247 0.0 3.0 0.00 0.00 0.00 62 1010.0
20260503234102 54 235 0.0 3.0 0.00 0.00 0.00 61 1010.0
20260503233603 55 223 0.0 6.0 0.00 0.00 0.00 60 1009.9
20260503233102 55 237 0.0 3.0 0.00 0.00 0.00 60 1009.8
20260503232602 55 227 0.0 6.0 0.00 0.00 0.00 60 1009.8
20260503231602 56 254 0.0 1.0 0.00 0.00 0.00 59 1009.7
20260503231103 57 229 0.0 7.0 0.00 0.00 0.00 58 1009.9
20260503225103 59 227 0.0 3.0 0.00 0.00 0.00 43 1009.3
20260503224102 59 217 0.0 6.0 0.00 0.00 0.00 43 1009.3
20260503223602 59 224 0.0 6.0 0.00 0.00 0.00 42 1009.4
20260503222602 59 236 0.0 2.0 0.00 0.00 0.00 41 1009.4
20260503222102 60 229 0.0 2.0 0.00 0.00 0.00 41 1009.4
20260503221602 60 238 0.0 5.0 0.00 0.00 0.00 44 1009.5
20260503221102 60 236 0.0 3.0 0.00 0.00 0.00 43 1009.4
20260503220602 60 240 0.0 2.0 0.00 0.00 0.00 43 1009.4
20260503215603 60 224 0.0 5.0 0.00 0.00 0.00 43 1009.4
20260503215102 60 210 0.0 3.0 0.00 0.00 0.00 43 1009.4
20260503214602 60 264 0.0 2.0 0.00 0.00 0.00 42 1009.4
20260503214102 60 220 0.0 3.0 0.00 0.00 0.00 43 1009.5
20260503213602 60 220 1.0 8.0 0.00 0.00 0.00 42 1009.6
20260503212602 60 227 1.0 3.0 0.00 0.00 0.00 41 1009.7
20260503212102 60 241 2.0 9.0 0.00 0.00 0.00 41 1009.6
20260503211102 60 246 1.0 6.0 0.00 0.00 0.00 41 1009.8
20260503210603 61 231 2.0 12.0 0.00 0.00 0.00 41 1009.8
20260503205602 61 247 1.0 7.0 0.00 0.00 0.00 41 1009.7
20260503204103 60 226 0.0 5.0 0.00 0.00 0.00 42 1010.0
20260503203602 61 238 1.0 8.0 0.00 0.00 0.00 40 1010.0
20260503203103 61 242 0.0 12.0 0.00 0.00 0.00 42 1010.0
20260503202602 61 239 0.0 2.0 0.00 0.00 0.00 41 1010.1
20260503202102 61 227 0.0 6.0 0.00 0.00 0.00 40 1010.1
20260503201102 61 248 0.0 1.0 0.00 0.00 0.00 40 1010.1
20260503200602 61 216 0.0 2.0 0.00 0.00 0.00 40 1010.2
20260503195602 61 234 0.0 10.0 0.00 0.00 0.00 40 1010.4
20260503195102 61 227 0.0 1.0 0.00 0.00 0.00 39 1010.4
20260503194602 61 241 0.0 1.0 0.00 0.00 0.00 40 1010.4
20260503194103 61 235 0.0 0.0 0.00 0.00 0.00 41 1010.5
20260503193602 61 228 0.0 2.0 0.00 0.00 0.00 40 1010.5
20260503193103 61 280 0.0 1.0 0.00 0.00 0.00 39 1010.7
20260503192602 61 243 0.0 3.0 0.00 0.00 0.00 39 1010.7
20260503192103 62 240 1.0 6.0 0.00 0.00 0.00 39 1010.9
20260503191102 61 202 0.0 0.0 0.00 0.00 0.00 40 1011.1
20260503185603 62 241 0.0 3.0 0.00 0.00 0.00 39 1011.3
20260503185102 61 220 0.0 6.0 0.00 0.00 0.00 40 1011.3
20260503184603 62 229 0.0 3.0 0.00 0.00 0.00 37 1011.4
20260503184102 62 264 0.0 0.0 0.00 0.00 0.00 41 1011.4
20260503183603 62 262 0.0 3.0 0.00 0.00 0.00 37 1011.3
20260503183102 62 231 0.0 3.0 0.00 0.00 0.00 39 1011.4
20260503182602 61 215 0.0 1.0 0.00 0.00 0.00 41 1011.6
20260503181603 61 250 0.0 2.0 0.00 0.00 0.00 38 1011.7
20260503181102 62 254 0.0 3.0 0.00 0.00 0.00 39 1011.9
20260503180603 62 233 0.0 0.0 0.00 0.00 0.00 41 1011.7
20260503175602 61 230 0.0 1.0 0.00 0.01 0.00 41 1011.7
20260503174602 61 235 0.0 2.0 0.00 0.01 0.00 42 1011.9
20260503173602 61 214 0.0 5.0 0.00 0.01 0.00 40 1012.0
20260503173103 61 258 0.0 0.0 0.00 0.01 0.00 41 1012.0
20260503172602 60 225 0.0 2.0 0.00 0.01 0.00 43 1012.1
20260503171602 60 272 0.0 2.0 0.00 0.01 0.00 41 1012.2
20260503171103 61 249 0.0 2.0 0.00 0.01 0.00 40 1012.3
20260503170602 60 231 0.0 1.0 0.00 0.01 0.00 41 1012.4
20260503150603 55 270 0.0 0.0 0.00 0.02 0.00 53 1013.7
20260503131103 48 229 0.0 2.0 0.00 0.02 0.00 62 1013.9
20260503130603 47 205 0.0 3.0 0.00 0.02 0.00 63 1014.0
20260503130103 47 222 1.0 5.0 0.00 0.02 0.00 63 1014.0
20260503110603 36 206 0.0 0.0 0.00 0.02 0.00 83 1013.8
20260503081603 37 217 0.0 0.0 0.00 0.02 0.00 81 1013.8
20260503081103 37 222 0.0 0.0 0.00 0.02 0.00 81 1013.8